Погода в Чишмах 2

Россия / Республика Башкортостан     54°34′46″N   55°20′40″E
темп.,
°C
ветер,
м/с
пор.,
м/с
влажн.,
%
обл.,
%
осадки,
мм/ч
давл.,
гПа
погр.,
м
25 мая, ср
ср2523:00+10в2396100 1.8 100593
02:00+9св0197100 1.7 100626
05:00+9ссз1197100 4.1 100550
08:00+10ссз2396100 3.2 1004225
11:00+11сз4686100 5.4 1005514
14:00+16з3452100 0.3 10071805
17:00+16ююз465696 0.3 10071153
20:00+11зсз5986100 0.7 1008312
26 мая, чт
чт2623:00+7зсз5990100 0.8 1011474
02:00+6з389052 0.0 1013282
05:00+4з37890 0.1 1014153
08:00+7з34740 0.0 1015354
11:00+11зюз235735 0.0 10161462
14:00+13з454937 0.0 10151865
17:00+13з555070 0.0 10151816
20:00+12з236463 0.0 101592
27 мая, пт
пт2723:00+7зюз33745 0.0 101549
02:00+6юз227769 0.0 101521
05:00+5ююз3379100 0.0 101542
08:00+10ююз597036 0.0 1014351
11:00+14ююз7959100 0.0 1012997
14:00+16ююз71056100 0.0 10111521
17:00+15ю7116899 0.1 1010926
20:00+12ю71489100 1.1 1010716
28 мая, сб
сб2823:00+11ю61390100 1.2 1009647
02:00+10ю4109695 0.0 1011399
05:00+10ю599598 0.0 1011429
08:00+11ю4891100 0.0 1012587
11:00+14ююз5779100 0.1 1013943
14:00+17ююз566693 0.1 10131373
17:00+18ююз4666100 0.3 10141520
20:00+16ююз477898 0.1 1015234
29 мая, вс
вс2923:00+12ю41088100 0.1 1016172
02:00+11ю31089100 0.0 1017176
05:00+11ю4108829 0.0 1018200
08:00+14ююз598030 0.0 1019332
11:00+19юз687138 0.0 1020940
14:00+20ююз786917 0.1 10201010
17:00+21ююз596787 0.2 10201131
20:00+19ююз4107797 1.1 1020300